Location: Newark
(0.5300°S, 127.4800°E)
Time: 03:13:17
(UTC+00:00)

Vanguard 3 - Pass Details

Date: 26 September 2019
Orbit: 508 x 3262 km, 33.3° (Epoch: 20 October)

Event Time Altitude Azimuth Distance (km) Brightness Sun altitude
Rises 18:04:02 0° 236° (SW) 2,962 - -49.3°
Reaches altitude 10° 18:05:57 10° 237° (WSW) 2,217 - -48.8°
Maximum altitude 18:11:02 85° 325° (NW) 999 - -47.6°
Exits shadow 18:15:50 26° 52° (NE) 2,299 9.6 -46.4°
Drops below altitude 10° 18:20:00 10° 53° (NE) 3,791 10.9 -45.3°
Sets 18:24:12 0° 54° (NE) 5,251 11.8 -44.3°
